Location: Bangkok
(13.7500°N, 100.5170°E)
Time: 03:49:01
(UTC+07:00)

Hubble Space Telescope - Visible Passes

Search period start: 19 April 2015 00:00
Search period end: 29 April 2015 00:00
Orbit: 543 x 546 km, 28.5° (Epoch: 17 April)

Date Brightness Start Highest point End Pass type
(mag) Time Alt. Az. Time Alt. Az. Time Alt. Az.
19 Apr 3.6 05:01:50 10° N 05:02:19 10° N 05:02:48 10° N visible
20 Apr 3.5 04:53:08 10° N 04:54:02 11° N 04:54:58 10° NNE visible
21 Apr 3.5 04:44:22 10° NNW 04:45:46 11° N 04:47:12 10° NNE visible
22 Apr 3.4 04:35:35 10° NNW 04:37:28 13° N 04:39:24 10° NE visible
23 Apr 3.4 04:26:47 10° NNW 04:29:08 15° NNE 04:31:32 10° NE visible
24 Apr 3.2 04:18:53 13° NNW 04:20:47 17° NNE 04:23:37 10° ENE visible
25 Apr 2.9 04:11:11 18° N 04:12:24 21° NNE 04:15:37 10° ENE visible
25 Apr 2.6 19:32:15 10° S 19:34:29 16° SSE 19:34:29 16° SSE visible
26 Apr 2.6 04:03:37 25° N 04:04:00 26° NNE 04:07:31 10° ENE visible
26 Apr 2.1 19:23:01 10° SSW 19:26:18 23° SSE 19:27:24 21° SE visible
27 Apr 2.5 03:56:11 31° NE 03:56:11 31° NE 03:59:20 10° E visible
27 Apr 1.1 05:32:53 10° WNW 05:36:55 49° SSW 05:40:56 10° SE visible
27 Apr 1.6 19:14:01 10° SW 19:17:45 32° SSE 19:20:19 17° E visible
27 Apr 3.6 20:55:02 10° W 20:55:51 15° W 20:55:51 15° W visible
28 Apr 2.8 03:48:54 27° E 03:48:54 27° E 03:51:04 10° E visible
28 Apr 1.6 05:24:34 10° W 05:28:22 34° SSW 05:32:08 10° SE visible
28 Apr 1.1 19:05:12 10° SW 19:09:12 47° SSE 19:13:11 10° ENE visible
28 Apr 3.1 20:46:45 10° W 20:48:43 23° WNW 20:48:43 23° WNW visible
